Regional Weather Roundup
Issued by NWS

Home | Current Version | Previous Version | Text Only | Print | Product List | Glossary On
Versions: 1 2 3 4 5 6 7 8 9 10 11 12 13 14 15 16 17 18 19 20 21 22 23 24 25 26 27 28 29 30 31 32 33 34 35 36 37 38 39 40 41 42 43 44 45 46 47 48 49 50
000
ASUS43 KDMX 170801
RWRIA

WEATHER ROUNDUP FOR IOWA
NATIONAL WEATHER SERVICE DES MOINES IA
200 AM CST FRI NOV 17 2017

NOTE: "FAIR" INDICATES FEW OR NO CLOUDS BELOW 12,000 FEET WITH NO
SIGNIFICANT WEATHER AND/OR OBSTRUCTIONS TO VISIBILITY.

* - THESE STATIONS ARE NOT NWS STATIONS...THUS NOT UNDER NWS
QUALITY CONTROL.  THEY ALSO DO NOT REPORT WEATHER SUCH
AS PRECIPITATION OR FOG.

IAZ001>003-012>014-020>022-031>034-043>046-170900-
   NORTHWEST IOWA

CITY           SKY/WX    TMP DP  RH WIND       PRES   REMARKS
CARROLL *      CLOUDY    41  32  70 SE16      29.81F
CHEROKEE *     CLOUDY    40  31  71 S10       29.77S WCI  33
DENISON *      CLOUDY    41  30  65 S18G29    29.78F
LE MARS *      CLOUDY    43  30  61 S23G30    29.70F
ORANGE CITY *  CLOUDY    39  30  70 S12G17    29.70F WCI  32
SHELDON *      CLOUDY    39  28  65 S22       29.70F WCI  29
SIOUX CITY     CLOUDY    39  30  70 SE14      29.73F WCI  31
SPENCER        CLOUDY    35  28  75 SE16      29.77F WCI  25
STORM LAKE *   CLOUDY    37  30  75 S14       29.78F WCI  29
$$

IAZ055>058-069>071-079>083-090>094-170900-
   SOUTHWEST IOWA

CITY           SKY/WX    TMP DP  RH WIND       PRES   REMARKS
ATLANTIC *     CLOUDY    45  30  57 S15G21    29.82F
AUDUBON *      CLOUDY    43  32  65 S10       29.81F
CLARINDA *       N/A     45  32  61 SE9         N/A
COUNCIL BLFS * PTCLDY    43  32  65 S16G22    29.78F
CRESTON *      CLOUDY    41  30  65 S21G28    29.87F
HARLAN  *      CLOUDY    45  32  61 S14       29.82F
LAMONI         CLOUDY    41  30  65 SE16      29.91F
RED OAK *      CLOUDY    46  32  57 S15G22    29.82F
SHENANDOAH *   CLOUDY    45  32  61 SE10      29.83F
$$

IAZ047>049-059>061-072>074-084-170900-
   CENTRAL IOWA

CITY           SKY/WX    TMP DP  RH WIND       PRES   REMARKS
AMES           CLOUDY    34  31  88 SE16      29.91F WCI  24
ANKENY *       CLOUDY    36  30  80 SE12      29.93F WCI  27
BOONE *        CLOUDY    36  30  80 SE16      29.87F WCI  26
CHARITON *     CLOUDY    39  30  70 S16G22    29.93F WCI  30
DES MOINES     MOCLDY    39  29  67 SE14      29.91F WCI  31
GRINNELL*      CLOUDY    33  31  92 SE16      29.98F WCI  22
KNOXVILLE *    CLOUDY    37  28  70 SE14G21   29.93F WCI  29
MARSHALLTOWN   CLOUDY    34  30  85 SE18G26   29.94F WCI  23
NEWTON *       CLOUDY    34  30  86 SE14      29.95F WCI  24
PELLA *        CLOUDY    36  30  79 SE15G21   29.96F WCI  27
PERRY *        CLOUDY    38  31  76 SE14      29.87F WCI  30
$$

IAZ004>006-015-016-023>025-035-036-170900-
   NORTH CENTRAL IOWA

CITY           SKY/WX    TMP DP  RH WIND       PRES   REMARKS
ALGONA *       CLOUDY    34  32  93 SE18G26   29.84F WCI  23
CLARION *      CLOUDY    34  34 100 SE22G31   29.88F WCI  22
ESTHERVILLE    CLOUDY    33  29  85 SE18G24   29.79F WCI  22
FORT DODGE *   CLOUDY    37  29  72 S9        29.86F WCI  30
MASON CITY     CLOUDY    32  28  85 SE18G29   29.91F WCI  20
FOREST CITY *  CLOUDY    34  32  93 SE16G25   29.88F WCI  23
WEBSTER CITY * CLOUDY    34  30  86 SE18G26   29.86F WCI  23
IOWA FALLS *   CLOUDY    34  31  89 SE13G18   29.93F WCI  25
$$

IAZ007>011-017>019-026>030-037>042-050>054-066-170900-
   NORTHEAST IOWA

CITY           SKY/WX    TMP DP  RH WIND       PRES   REMARKS
CEDAR RAPIDS   CLOUDY    31  29  92 SE16G23   30.03F FOG     WCI  20
CHARLES CITY * CLOUDY    32  32 100 SE20      29.96F WCI  20
CLINTON *      MOCLDY    31  29  92 SE12      30.13F WCI  22
DECORAH *      CLOUDY    32  28  86 S13G22    30.01F WCI  22
DUBUQUE        CLOUDY    32  28  85 S20G28    30.06F WCI  20
MONTICELLO *   CLOUDY    32  30  93 SE14G24   30.05F WCI  22
OELWEIN *      CLOUDY    32  32 100 SE20G26   30.02F WCI  20
WATERLOO       CLOUDY    33  28  81 SE15G28   30.00F WCI  23
$$

IAZ064-065-067-068-078-170900-
   EAST CENTRAL IOWA

CITY           SKY/WX    TMP DP  RH WIND       PRES   REMARKS
DAVENPORT      CLOUDY    32  29  88 SE13G20   30.13F WCI  22
IOWA CITY      CLOUDY    33  29  85 SE12      30.08F WCI  24
MT. PLEASANT * PTCLDY    32  31  98 SE16      30.07F WCI  21
MUSCATINE *    CLOUDY    32  30  93 SE12      30.10F WCI  23
QUAD CITIES    CLOUDY    33  29  85 SE9       30.12F WCI  25
$$

IAZ062-063-075>077-085>089-095>099-170900-
   SOUTHEAST IOWA

CITY           SKY/WX    TMP DP  RH WIND       PRES   REMARKS
BURLINGTON     MOCLDY    32  30  92 SE12      30.10S WCI  23
FAIRFIELD *    CLOUDY    34  30  86 SE14G22   30.03F WCI  24
FORT MADISON * PTCLDY    32  30  93 SE12G17   30.09F WCI  23
KEOKUK *       MOCLDY    32  32 100 SE10      30.08F WCI  24
OSKALOOSA *    CLOUDY    33  31  92 SE16      29.99F WCI  23
OTTUMWA        CLOUDY    36  31  82 SE16      30.00F WCI  26
WASHINGTON *     N/A     32  32 100 SE14      30.06F WCI  22
$$

ABBREVIATIONS USED IN REMARKS
   TC - TEMPERATURES IN CELSIUS
  WCI - WIND CHILL INDEX
   HX - HEAT INDEX
  VSB - VISIBILITY
$$





USA.gov is the U.S. government's official web portal to all federal, state and local government web resources and services.